FW0225 Weather Reports


Display with metric or nautical units.
time (UTC)temp
F
wind
direction
speed
MPH
gust
MPH
rain 1hr
in
rain 24hr
in
rain mn
in
humidity
%
barometer
mb
20260505171024 57 225 0.0 1.0 0.20 1.14 0.29 91 1013.0
20260505170525 57 225 0.0 1.0 0.24 1.14 0.29 91 1013.0
20260505170015 57 225 0.0 0.0 0.28 1.14 0.29 91 1013.1
20260505165519 57 225 0.0 1.0 0.28 1.14 0.29 91 1013.1
20260505165019 57 225 0.0 2.0 0.31 1.14 0.29 91 1013.1
20260505164523 57 225 0.0 2.0 0.35 1.14 0.29 91 1013.1
20260505164024 57 225 0.0 1.0 0.35 1.10 0.28 91 1013.2
20260505163548 57 225 0.0 1.0 0.31 1.06 0.27 90 1013.2
20260505163020 57 225 0.0 2.0 0.31 1.06 0.27 90 1013.2
20260505162523 57 225 0.0 2.0 0.28 1.02 0.26 90 1013.2
20260505162041 57 225 1.0 3.0 0.24 0.98 0.25 90 1013.3
20260505161544 57 225 1.0 3.0 0.20 0.94 0.24 90 1013.2
20260505161027 57 225 0.0 2.0 0.20 0.94 0.24 89 1013.3
20260505160529 57 225 0.0 2.0 0.20 0.91 0.23 89 1013.4
20260505153020 57 225 1.0 3.0 0.12 0.75 0.19 88 1013.4
20260505152522 57 225 2.0 3.0 0.12 0.75 0.19 89 1013.4
20260505152022 57 225 0.0 1.0 0.12 0.75 0.19 88 1013.5
20260505151526 58 225 0.0 1.0 0.12 0.75 0.19 89 1013.5
20260505151024 58 225 0.0 3.0 0.12 0.75 0.19 89 1013.6
20260505150547 58 225 0.0 3.0 0.08 0.71 0.18 89 1013.7
20260505140552 59 225 0.0 1.0 0.04 0.63 0.16 88 1014.0
20260505125029 59 225 1.0 1.0 0.16 0.59 0.15 86 1014.3
20260505124511 59 225 0.0 0.0 0.16 0.59 0.15 86 1014.4
20260505124052 59 225 0.0 2.0 0.20 0.59 0.15 87 1014.4
20260505123515 59 225 0.0 2.0 0.16 0.55 0.14 87 1014.4
20260505123029 59 225 1.0 2.0 0.16 0.55 0.14 86 1014.5
20260505122512 59 225 1.0 2.0 0.16 0.55 0.14 86 1014.6
20260505122052 59 225 0.0 1.0 0.16 0.55 0.14 85 1014.6
20260505121531 59 225 0.0 2.0 0.12 0.51 0.13 85 1014.6
20260505121031 59 225 0.0 3.0 0.16 0.51 0.13 84 1014.6
20260505120514 59 225 1.0 2.0 0.12 0.47 0.12 84 1014.7
20260505120028 59 225 0.0 2.0 0.12 0.47 0.12 85 1014.7
20260505115516 60 225 0.0 2.0 0.12 0.43 0.11 85 1014.6
20260505115018 59 225 0.0 4.0 0.16 0.43 0.11 85 1014.7
20260505114541 59 225 2.0 3.0 0.16 0.43 0.11 85 1014.7
20260505114020 59 225 1.0 3.0 0.12 0.39 0.10 85 1014.7
20260505113525 59 225 1.0 3.0 0.12 0.39 0.10 84 1014.7
20260505113038 59 225 1.0 4.0 0.12 0.39 0.10 85 1014.8
20260505112521 59 225 2.0 6.0 0.12 0.39 0.10 84 1014.8
20260505112020 59 228 3.0 8.0 0.12 0.39 0.10 84 1014.8
20260505111522 59 230 3.0 12.0 0.16 0.39 0.10 85 1014.8
20260505111021 59 232 5.0 12.0 0.16 0.35 0.09 84 1014.8
20260505110544 60 245 4.0 9.0 0.28 0.35 0.09 85 1014.8
20260505102039 62 250 0.0 2.0 0.28 0.28 0.07 84 1014.7
20260505101521 62 250 1.0 2.0 0.24 0.24 0.06 83 1014.7
20260505101020 63 249 0.0 4.0 0.20 0.20 0.05 81 1014.7
20260505100526 63 249 2.0 4.0 0.08 0.08 0.02 79 1014.7
20260505100018 63 255 1.0 3.0 0.00 0.00 0.00 78 1014.7
20260505095519 64 255 1.0 3.0 0.00 0.00 0.00 78 1014.7
20260505095018 64 255 1.0 7.0 0.00 0.00 0.00 77 1014.7
20260505094521 64 255 1.0 7.0 0.00 0.00 0.00 76 1014.8
20260505094021 63 270 1.0 6.0 0.00 0.00 0.00 75 1014.8
20260505093524 63 272 2.0 7.0 0.00 0.00 0.00 74 1014.8
20260505093015 63 286 3.0 7.0 0.00 0.00 0.00 74 1014.7
20260505092520 63 302 2.0 4.0 0.00 0.00 0.00 75 1014.8
20260505092019 63 304 1.0 3.0 0.00 0.00 0.00 74 1014.8
20260505091522 62 304 1.0 2.0 0.00 0.00 0.00 76 1014.9
20260505091021 62 304 1.0 2.0 0.00 0.00 0.00 74 1014.9
20260505090543 62 304 0.0 2.0 0.00 0.00 0.00 74 1014.8
20260505090013 62 304 0.0 2.0 0.00 0.00 0.00 73 1014.8
20260505085516 61 304 1.0 3.0 0.00 0.00 0.00 73 1014.7
20260505085017 61 304 2.0 3.0 0.00 0.00 0.00 73 1014.7
20260505084523 61 304 2.0 3.0 0.00 0.00 0.00 73 1014.6
20260505084023 61 304 2.0 4.0 0.00 0.00 0.00 73 1014.6
20260505083527 61 302 2.0 4.0 0.00 0.00 0.00 73 1014.6
20260505083039 61 294 2.0 5.0 0.00 0.00 0.00 73 1014.5
20260505082541 61 286 2.0 5.0 0.00 0.00 0.00 73 1014.5
20260505082018 60 247 3.0 5.0 0.00 0.00 0.00 74 1014.4
20260505081540 60 236 3.0 6.0 0.00 0.00 0.00 75 1014.5
20260505081020 59 228 4.0 6.0 0.00 0.00 0.00 76 1014.6
20260505080523 58 228 3.0 4.0 0.00 0.00 0.00 77 1014.6
20260505080015 58 228 2.0 4.0 0.00 0.00 0.00 77 1014.7
20260505075518 57 228 3.0 4.0 0.00 0.00 0.00 78 1014.6
20260505075040 57 228 2.0 4.0 0.00 0.00 0.00 78 1014.7
20260505074523 57 228 3.0 4.0 0.00 0.00 0.00 78 1014.7
20260505074024 56 228 2.0 3.0 0.00 0.00 0.00 80 1014.6
20260505073527 56 228 1.0 4.0 0.00 0.00 0.00 81 1014.7
20260505073020 55 228 3.0 4.0 0.00 0.00 0.00 81 1014.6
20260505072544 55 228 2.0 4.0 0.00 0.00 0.00 82 1014.6
20260505072022 55 228 2.0 3.0 0.00 0.00 0.00 82 1014.7
20260505071524 55 228 2.0 3.0 0.00 0.00 0.00 82 1014.7
20260505071024 55 228 2.0 3.0 0.00 0.00 0.00 82 1014.7
20260505070531 54 228 2.0 3.0 0.00 0.00 0.00 83 1014.7
20260505070023 54 228 1.0 4.0 0.00 0.00 0.00 83 1014.7
20260505065546 54 228 2.0 4.0 0.00 0.00 0.00 84 1014.7
20260505065046 54 228 2.0 4.0 0.00 0.00 0.00 84 1014.7
20260505064528 53 227 3.0 4.0 0.00 0.00 0.00 85 1014.7
20260505064026 53 227 3.0 4.0 0.00 0.00 0.00 85 1014.7
20260505063530 53 227 2.0 4.0 0.00 0.00 0.00 85 1014.7
20260505063021 53 227 3.0 4.0 0.00 0.00 0.00 85 1014.7
20260505062525 53 227 2.0 4.0 0.00 0.00 0.00 85 1014.7
20260505062025 52 227 2.0 3.0 0.00 0.00 0.00 86 1014.6
20260505061528 52 227 2.0 3.0 0.00 0.00 0.00 86 1014.6
20260505061028 52 227 2.0 3.0 0.00 0.00 0.00 87 1014.6
20260505060512 52 227 1.0 5.0 0.00 0.00 0.00 87 1014.6
20260505060025 51 227 2.0 5.0 0.00 0.00 0.00 87 1014.6
20260505055513 51 227 3.0 4.0 0.00 0.00 0.00 87 1014.7
20260505055034 51 227 3.0 4.0 0.00 0.00 0.00 87 1014.7
20260505054515 51 227 1.0 4.0 0.00 0.00 0.00 87 1014.7
20260505054013 51 227 1.0 3.0 0.00 0.00 0.00 88 1014.6
20260505053517 51 226 2.0 3.0 0.00 0.00 0.00 88 1014.6
20260505053030 51 226 2.0 3.0 0.00 0.00 0.00 88 1014.6
20260505052512 51 226 1.0 3.0 0.00 0.00 0.00 88 1014.6
20260505052034 50 226 1.0 4.0 0.00 0.00 0.00 88 1014.5
20260505051516 50 226 2.0 4.0 0.00 0.00 0.00 88 1014.6
20260505051013 50 226 1.0 4.0 0.00 0.00 0.00 88 1014.5
20260505050516 50 226 2.0 5.0 0.00 0.00 0.00 88 1014.6
20260505041516 48 225 0.0 3.0 0.00 0.00 0.00 90 1014.5
20260505041015 48 225 0.0 3.0 0.00 0.00 0.00 89 1014.4
20260505040519 48 225 0.0 3.0 0.00 0.00 0.00 89 1014.4
20260505040032 48 225 1.0 3.0 0.00 0.00 0.00 89 1014.4
20260505035512 48 225 1.0 4.0 0.00 0.00 0.00 89 1014.4
20260505035034 48 225 3.0 4.0 0.00 0.00 0.00 89 1014.4
20260505034519 48 225 0.0 3.0 0.00 0.00 0.00 89 1014.4
20260505034016 48 225 2.0 3.0 0.00 0.00 0.00 88 1014.4
20260505033532 48 225 1.0 3.0 0.00 0.00 0.00 88 1014.4
20260505033045 48 225 1.0 2.0 0.00 0.00 0.00 88 1014.4
20260505032527 48 225 1.0 3.0 0.00 0.00 0.00 88 1014.4
20260505032046 48 225 1.0 3.0 0.00 0.00 0.00 88 1014.4
20260505031531 48 225 1.0 4.0 0.00 0.00 0.00 88 1014.4
20260505031054 48 225 1.0 4.0 0.00 0.00 0.00 88 1014.4
20260505030517 48 225 2.0 4.0 0.00 0.00 0.00 88 1014.4
20260505030029 49 225 2.0 4.0 0.00 0.00 0.00 88 1014.4
20260505025532 49 224 0.0 2.0 0.00 0.00 0.00 88 1014.5
20260505025032 48 224 0.0 2.0 0.00 0.00 0.00 87 1014.5
20260505024513 49 224 1.0 3.0 0.00 0.00 0.00 87 1014.6
20260505024013 49 224 2.0 4.0 0.00 0.00 0.00 87 1014.7
20260505023515 49 224 3.0 4.0 0.00 0.00 0.00 87 1014.7
20260505023027 49 224 2.0 4.0 0.00 0.00 0.00 87 1014.8
20260505022549 49 224 3.0 4.0 0.00 0.00 0.00 87 1014.9
20260505022049 49 223 1.0 3.0 0.00 0.00 0.00 87 1015.0
20260505021532 49 223 1.0 4.0 0.00 0.00 0.00 87 1015.0
20260505021032 49 223 2.0 4.0 0.00 0.00 0.00 87 1015.1
20260505020514 49 223 2.0 4.0 0.00 0.00 0.00 87 1015.1
20260505020046 49 223 2.0 4.0 0.00 0.00 0.00 87 1015.2
20260505015526 49 223 0.0 2.0 0.00 0.00 0.00 87 1015.2
20260505015048 49 223 1.0 2.0 0.00 0.00 0.00 87 1015.1
20260505014551 49 223 0.0 2.0 0.00 0.00 0.00 87 1015.2
20260505014016 50 223 1.0 3.0 0.00 0.00 0.00 87 1015.2
20260505013518 50 223 2.0 3.0 0.00 0.00 0.00 87 1015.3
20260505013030 50 223 1.0 5.0 0.00 0.00 0.00 87 1015.3
20260505012533 50 223 2.0 5.0 0.00 0.00 0.00 87 1015.3
20260505012013 50 223 2.0 4.0 0.00 0.00 0.00 87 1015.3
20260505011515 50 223 1.0 4.0 0.00 0.00 0.00 87 1015.3
20260505011015 50 223 2.0 4.0 0.00 0.00 0.00 86 1015.4
20260505010516 50 223 1.0 3.0 0.00 0.00 0.00 87 1015.5
20260505010029 50 223 0.0 3.0 0.00 0.00 0.00 86 1015.5
20260505005535 50 223 1.0 5.0 0.00 0.00 0.00 86 1015.6
20260505005015 50 223 2.0 5.0 0.00 0.00 0.00 86 1015.6
20260505004537 50 223 2.0 4.0 0.00 0.00 0.00 86 1015.7
20260505004014 50 223 2.0 4.0 0.00 0.00 0.00 86 1015.7
20260505003515 50 222 1.0 3.0 0.00 0.00 0.00 86 1015.9
20260505003026 50 222 2.0 3.0 0.00 0.00 0.00 86 1015.9
20260505002529 50 222 1.0 4.0 0.00 0.00 0.00 86 1015.9
20260505002028 50 222 1.0 4.0 0.00 0.00 0.00 86 1016.0
20260505001515 50 222 1.0 3.0 0.00 0.00 0.00 86 1016.0
20260505001016 50 222 0.0 1.0 0.00 0.00 0.00 86 1016.1
20260505000519 50 222 0.0 1.0 0.00 0.00 0.00 86 1016.1
20260505000031 50 222 0.0 2.0 0.00 0.00 0.00 86 1016.2
20260504235513 50 222 1.0 2.0 0.00 0.00 0.00 86 1016.2
20260504235054 50 222 1.0 2.0 0.00 0.00 0.00 86 1016.2
20260504234533 50 222 0.0 0.0 0.00 0.00 0.00 85 1016.2
20260504234026 50 222 0.0 0.0 0.00 0.00 0.00 85 1016.3
20260504233527 50 222 0.0 1.0 0.00 0.00 0.00 85 1016.4
20260504233019 51 222 0.0 1.0 0.00 0.00 0.00 85 1016.4
20260504232520 51 222 0.0 1.0 0.00 0.00 0.00 85 1016.4
20260504232020 51 222 0.0 1.0 0.00 0.00 0.00 85 1016.4
20260504231520 51 222 0.0 1.0 0.00 0.00 0.00 85 1016.4
20260504231020 51 222 0.0 0.0 0.00 0.00 0.00 84 1016.4
20260504230524 51 222 0.0 0.0 0.00 0.00 0.00 84 1016.5
20260504230016 51 222 0.0 1.0 0.00 0.00 0.00 84 1016.5
20260504225520 51 222 0.0 1.0 0.00 0.00 0.00 84 1016.5
20260504225018 52 222 0.0 0.0 0.00 0.00 0.00 84 1016.4
20260504224524 52 222 0.0 0.0 0.00 0.00 0.00 84 1016.4
20260504224026 52 222 0.0 0.0 0.00 0.00 0.00 84 1016.4
20260504223550 52 222 0.0 1.0 0.00 0.00 0.00 83 1016.5
20260504223020 52 222 0.0 0.0 0.00 0.00 0.00 83 1016.5
20260504222523 52 222 0.0 0.0 0.00 0.00 0.00 83 1016.5
20260504222022 53 222 0.0 0.0 0.00 0.00 0.00 82 1016.5
20260504221524 53 222 0.0 1.0 0.00 0.00 0.00 83 1016.5
20260504221045 53 222 0.0 1.0 0.00 0.00 0.00 82 1016.5
20260504220548 53 222 0.0 1.0 0.00 0.00 0.00 82 1016.5
20260504220019 53 222 0.0 1.0 0.00 0.00 0.00 82 1016.5
20260504215543 53 222 0.0 1.0 0.00 0.00 0.00 82 1016.5
20260504215022 53 222 0.0 1.0 0.00 0.00 0.00 82 1016.6
20260504214526 54 222 0.0 1.0 0.00 0.00 0.00 83 1016.5
20260504214026 54 222 0.0 1.0 0.00 0.00 0.00 82 1016.6
20260504213530 54 222 0.0 0.0 0.00 0.00 0.00 83 1016.5
20260504213023 54 222 0.0 0.0 0.00 0.00 0.00 82 1016.5
20260504212526 54 222 0.0 0.0 0.00 0.00 0.00 82 1016.5
20260504212031 54 222 0.0 1.0 0.00 0.00 0.00 82 1016.6
20260504211533 55 222 0.0 1.0 0.00 0.00 0.00 82 1016.5
20260504211031 55 222 0.0 0.0 0.00 0.00 0.00 82 1016.5
20260504210515 55 222 0.0 0.0 0.00 0.00 0.00 82 1016.6
20260504210028 55 222 0.0 1.0 0.00 0.00 0.00 82 1016.6
20260504205533 55 222 0.0 1.0 0.00 0.00 0.00 82 1016.6
20260504205033 56 222 0.0 0.0 0.00 0.00 0.00 82 1016.5
20260504204515 56 222 0.0 0.0 0.00 0.00 0.00 82 1016.5
20260504204037 56 222 0.0 0.0 0.00 0.00 0.00 82 1016.5
20260504203521 56 222 0.0 0.0 0.00 0.00 0.00 82 1016.5
20260504203014 56 222 0.0 0.0 0.00 0.00 0.00 82 1016.5
20260504202540 56 222 0.0 0.0 0.00 0.00 0.00 82 1016.6
20260504202020 56 222 0.0 0.0 0.00 0.00 0.00 82 1016.5
20260504201523 57 222 0.0 0.0 0.00 0.00 0.00 81 1016.5
20260504201023 57 222 0.0 0.0 0.00 0.00 0.00 81 1016.6
20260504200531 57 222 0.0 0.0 0.00 0.00 0.00 81 1016.5
20260504200024 57 222 0.0 0.0 0.00 0.00 0.00 81 1016.5
20260504195525 57 222 0.0 0.0 0.00 0.00 0.00 81 1016.4
20260504195024 57 222 0.0 1.0 0.00 0.00 0.00 81 1016.4
20260504194527 58 222 0.0 1.0 0.00 0.00 0.00 80 1016.4
20260504194026 58 222 0.0 0.0 0.00 0.00 0.00 80 1016.4
20260504193549 58 222 0.0 1.0 0.00 0.00 0.00 80 1016.3
20260504193019 58 222 0.0 1.0 0.00 0.00 0.00 80 1016.3
20260504192521 59 222 0.0 1.0 0.00 0.00 0.00 79 1016.2
20260504192020 59 222 0.0 1.0 0.00 0.00 0.00 79 1016.2
20260504191522 59 222 0.0 1.0 0.00 0.00 0.00 78 1016.2
20260504191021 60 222 0.0 1.0 0.00 0.00 0.00 78 1016.1
20260504190546 60 222 0.0 0.0 0.00 0.00 0.00 78 1016.0
20260504190018 60 222 0.0 1.0 0.00 0.00 0.00 77 1016.0
20260504185521 60 222 0.0 1.0 0.00 0.00 0.00 77 1016.0
20260504185025 61 222 0.0 0.0 0.00 0.00 0.00 76 1015.9
20260504184529 61 222 0.0 0.0 0.00 0.00 0.00 76 1015.9
20260504184031 61 222 0.0 1.0 0.00 0.00 0.00 76 1015.8
20260504183516 62 222 0.0 2.0 0.00 0.00 0.00 75 1015.8
20260504183030 62 222 0.0 2.0 0.00 0.00 0.00 74 1015.7
20260504182518 63 222 0.0 1.0 0.00 0.00 0.00 73 1015.7
20260504182021 63 222 0.0 1.0 0.00 0.00 0.00 72 1015.6
20260504181527 63 222 0.0 1.0 0.00 0.00 0.00 72 1015.6
20260504181029 64 222 0.0 1.0 0.00 0.00 0.00 71 1015.5
20260504180515 64 222 0.0 2.0 0.00 0.00 0.00 72 1015.5
20260504180014 64 222 1.0 3.0 0.00 0.00 0.00 71 1015.4
20260504175539 65 222 0.0 3.0 0.00 0.00 0.00 71 1015.3
20260504175023 65 222 1.0 3.0 0.00 0.00 0.00 69 1015.2
20260504174527 65 222 1.0 3.0 0.00 0.00 0.00 69 1015.2
20260504174029 66 222 0.0 2.0 0.00 0.00 0.00 69 1015.2
20260504173553 66 222 1.0 2.0 0.00 0.00 0.00 69 1015.2
20260504173024 67 222 0.0 1.0 0.00 0.00 0.00 68 1015.2
20260504172527 67 222 0.0 1.0 0.00 0.00 0.00 68 1015.2
20260504172027 67 222 0.0 0.0 0.00 0.00 0.00 67 1015.2
20260504171524 68 222 0.0 2.0 0.00 0.00 0.00 65 1015.2